10.05.2024;15:00;101
10.05.2024;14:00;97
10.05.2024;13:00;86
10.05.2024;12:00;71
10.05.2024;11:00;54
10.05.2024;10:00;44
10.05.2024;09:00;23
10.05.2024;08:00;8
10.05.2024;07:00;3
10.05.2024;06:00;1
10.05.2024;05:00;4
10.05.2024;04:00;5
10.05.2024;03:00;14
10.05.2024;02:00;16
10.05.2024;01:00;21
10.05.2024;00:00;19
09.05.2024;23:00;56
09.05.2024;22:00;69
09.05.2024;21:00;78
09.05.2024;20:00;82
09.05.2024;19:00;92
09.05.2024;18:00;91
09.05.2024;17:00;87
09.05.2024;16:00;84
09.05.2024;15:00;84
09.05.2024;14:00;78
09.05.2024;13:00;78
09.05.2024;12:00;75
09.05.2024;11:00;63
09.05.2024;10:00;50
09.05.2024;09:00;36
09.05.2024;08:00;25
09.05.2024;07:00;26
09.05.2024;06:00;30
09.05.2024;05:00;30
09.05.2024;04:00;34
09.05.2024;03:00;32
09.05.2024;02:00;31
09.05.2024;01:00;27
09.05.2024;00:00;20
08.05.2024;23:00;21
08.05.2024;22:00;21
08.05.2024;21:00;21
08.05.2024;20:00;22
08.05.2024;19:00;21
08.05.2024;18:00;23
08.05.2024;17:00;21
08.05.2024;16:00;23
